[ hide orbit diagram ]
For accurate long-term ephemerides, please instead use our Horizons system.This orbit viewer was implemented using two-body methods, and hence should not be used for determining accurate long-term trajectories (over several years or decades) or planetary encounter circumstances.
Orbital Elements at Epoch 2459200.5 (2020-Dec-17.0) TDB
Reference: JPL 30 (heliocentric ecliptic J2000)
Element | Value | Uncertainty (1-sigma) | Units |
e | .2242022954559383 | 3.0151e-08 | |
a | 2.420928305782338 | 1.0114e-08 | au |
q | 1.878150622491682 | 7.5616e-08 | au |
i | 1.971582611308463 | 3.606e-06 | deg |
node | 164.5007706256895 | 0.00012126 | deg |
peri | 166.0803690302781 | 0.00012164 | deg |
M | 358.1913169107742 | 1.0643e-05 | deg |
tp | 2459207.412438757334 (2020-Dec-23.91243876) | 4.0689e-05 | TDB |
period | 1375.850732206083 3.77 | 8.6216e-06 2.36e-08 | d yr |
n | .261656291320763 | 1.6396e-09 | deg/d |
Q | 2.963705989072993 | 1.2381e-08 | au |
|
| | Orbit Determination Parameters
Additional Information
|
[ show covariance matrix ]
Physical Parameter Table
Parameter |
Symbol |
Value |
Units |
Sigma |
Reference |
Notes |
absolute magnitude |
H |
15.59 |
|
n/a |
E2021B10 |
|
|
14018 (1994 PM14) Discovered 1994-Aug-10 by Elst, E. W. at La Silla |
Reference: 20000320/Numbers.arc | Last Updated: 2004-04-19 |
|
|